Location: Davayat
(45.9471°N, 3.1105°E)
Time: 17:56:33
(UTC+00:00)

Cosmos 2218 Rocket - Pass Details

Date: 01 December 2020
Orbit: 956 x 1006 km, 82.9° (Epoch: 22 January)

Event Time Altitude Azimuth Distance (km) Brightness Sun altitude
Rises 16:28:32 0° 357° (N) 3,649 6.8 -4.5°
Reaches altitude 10° 16:31:14 10° 5° (N) 2,698 6.0 -5.0°
Maximum altitude 16:36:57 39° 73° (ENE) 1,405 4.4 -5.9°
Drops below altitude 10° 16:42:40 10° 141° (SE) 2,690 6.2 -6.7°
Sets 16:45:20 0° 149° (SSE) 3,637 6.9 -7.2°
